SL-16 DEB, 22645

Orbit data source: Space-Track

SL-16 DEB, 22645 is space debris in LEO originally from a launch on Fri, 26 Mar 1993 UTC launched from the Tyuratam Missile And Space Complex (TTMTR). Debris objects in space refer to the collection of defunct objects orbiting the Earth. Examples of debris include non-operational satellites, rocket bodies, and fragments generated from explosions, collisions, or faulty payload assembly.

Loading next visibility...
Identifier
22645, 1993-016AF
Orbit
LEO
Country
Flag of CISCIS
Related business
Manufacturer
Unknown
Mission
Spacecraft
Bus & Motor
Unknown
Mass
Unknown
Launch date (UTC)
1993-03-26 (33 years ago)
Launch vehicle
Unknown
Launch site
Tyuratam Missile And Space Complex (TTMTR)
Object type
Payload
Rocket body
Debris
Shape & HBR
Unknown shape, 0.1 m
Radar Cross Section
Small (<0.1 m²)

Expand to show TLE details & history
Last TLE update: 1 day ago

TLE from 1 day ago
0 SL-16 DEB
1 22645U 93016AF  25349.42278083  .00000864  00000-0  69741-3 0  9993
2 22645  70.9866 354.3656 0172601 247.2219 111.0573 13.86440960646862
Epoch: 2025-12-15T10:08Z
TLE epoch observation values (Epoch: 2025-12-15T10:08:48.263Z)
Latitude
-0.00008°
Longitude
117.84291°
Altitude
990.775 km
Speed
7.333 km/s
True Right ascension
23h 37m 27s
True Declination
0° 00' 00"
Sunlit
Object was in daylight at epoch
Visualization orbit readout
Latitude
Unknown
Longitude
Unknown
Altitude
Unknown
Speed
Unknown
Apparent Right ascension
Unknown
Apparent Declination
Unknown
Sunlit
N/A
Visualization observer readout
Local Sidereal Time
11:37:56
Azimuth
Unknown
Elevation
Unknown
Doppler factor
Unknown
Orbital elements
Apogee altitude
1,065.379 km
Perigee altitude
812.787 km
Semi-major axis
7,317.22 km
Eccentricity
0.01726
Inclination
70.9866°
RAAN
354.3656°
Arg. of periapsis
247.2219°
True anomaly
112.88857°
Mean anomaly
111.0573°
Eccentric anomaly
111.97439°
Mean motion
3.46756 °/min
Orbital period
103.82 mins
BSTAR
0.00069741
Loading maneuver chart data...
Computing Atmospheric mass density...
Loading historical data...
Loading historical data...
Loading historical data...
Loading historical data...
Loading historical data...
Loading historical data...
Loading historical data...

Documentation

Showing up to 5 results
|